Location: Tr�vern
(48.0333°N, 4.6000°W)
Time: 17:36:54
(UTC+00:00)

Lacrosse 5 - Pass Details

Date: 14 July 2020
Orbit: 717 x 720 km, 57.0° (Epoch: 09 August)

Event Time Altitude Azimuth Distance (km) Brightness Sun altitude
Exits shadow 00:10:41 44° 158° (SSE) 989 2.1 -20.3°
Maximum altitude 00:11:22 47° 134° (SE) 948 2.1 -20.3°
Drops below altitude 10° 00:16:13 10° 61° (ENE) 2,205 4.7 -20.3°
Sets 00:18:40 0° 56° (NE) 3,129 5.6 -20.3°
